Buckhannon, WV

8:44 PM EDT on May 26, 2017 (GMT -0400)
Buckhannon

Weather History for KW22 - November, 2011

Change the Weather History Date:

Tuesday, November 22, 2011

  Actual Average (KCKB) Record (KCKB)
Temperature  
Mean Temperature 55 °F -  
Max Temperature 60 °F 48 °F 75 °F (1931)
Min Temperature 50 °F 29 °F 12 °F (1951)
Degree Days  
Heating Degree Days 10    
Growing Degree Days 5 (Base 50)    
Moisture  
Dew Point 59 °F    
Average Humidity 96    
Maximum Humidity 100    
Minimum Humidity 88    
Precipitation  
Precipitation 0.00 in - - ()
Sea Level Pressure  
Sea Level Pressure 30.04 in    
Wind  
Wind Speed 1 mph (SSE)    
Max Wind Speed 16 mph    
Max Gust Speed 16 mph    
Visibility 5 miles    
Events      
Averages and records for this station are not official NWS values.
T = Trace of Precipitation, MM = Missing Value Source: NWS Daily Summary

Daily Weather History Graph

Daily Weather History Graph

Search for Another Location

Airport or City:

Trip Planner

Search our weather history database for the weather conditions in past years. The results will help you decide how hot, cold, wet, or windy it might be!

Date:

Astronomy

Nov. 22, 2011 Rise Set
Actual Time 7:11 AM EST 5:02 PM EST
Civil Twilight 6:42 AM EST 5:31 PM EST
Nautical Twilight 6:09 AM EST 6:04 PM EST
Astronomical Twilight 5:37 AM EST 6:36 PM EST
Moon 4:01 AM EST (11/22) 3:00 PM EST (11/22)
Length of Visible Light 10h 49m
Length of Day
9h 51m
Waning Crescent, 9% of the Moon is Illuminated
Nov 22
Waning Crescent
Nov 25
New
Dec 2
First Quarter
Dec 10
Full
Dec 17
Last Quarter

Hourly Weather History & Observations

Time (EST) Temp. Dew Point Humidity Pressure Visibility Wind Dir Wind Speed Gust Speed Precip Events Conditions
12:15 AM 50.0 °F - N/A% 30.17 in 1.8 mi Calm Calm - N/A   Overcast
12:35 AM 50.0 °F - N/A% 30.17 in 0.5 mi Calm Calm - N/A   Overcast
12:55 AM 50.0 °F - N/A% 30.16 in 0.2 mi Calm Calm - N/A   Overcast
1:15 AM 50.0 °F - N/A% 30.16 in 3.0 mi Calm Calm - N/A   Mostly Cloudy
1:35 AM 50.0 °F - N/A% 30.17 in 5.0 mi Calm Calm - N/A   Overcast
1:55 AM 50.0 °F - N/A% 30.17 in 9.0 mi Calm Calm - N/A   Mostly Cloudy
2:15 AM 50.0 °F - N/A% 30.17 in 2.0 mi Calm Calm - N/A   Mostly Cloudy
2:35 AM 50.0 °F - N/A% 30.17 in 7.0 mi Calm Calm - N/A   Mostly Cloudy
2:55 AM 50.0 °F - N/A% 30.17 in 4.0 mi Calm Calm - N/A   Overcast
3:15 AM 50.0 °F - N/A% 30.17 in 0.8 mi Calm Calm - N/A   Overcast
3:35 AM 51.8 °F - N/A% 30.16 in 5.0 mi Calm Calm - N/A   Overcast
3:55 AM 51.8 °F - N/A% 30.16 in 6.0 mi Calm Calm - N/A   Overcast
4:15 AM 51.8 °F - N/A% 30.15 in 7.0 mi Calm Calm - N/A   Overcast
4:35 AM 50.0 °F - N/A% 30.15 in 1.8 mi Calm Calm - N/A   Overcast
4:55 AM 50.0 °F - N/A% 30.14 in 5.0 mi Calm Calm - N/A   Overcast
5:15 AM 51.8 °F - N/A% 30.15 in 6.0 mi Calm Calm - N/A   Overcast
5:35 AM 51.8 °F - N/A% 30.15 in 8.0 mi Calm Calm - N/A   Overcast
5:55 AM 50.0 °F - N/A% 30.15 in 7.0 mi Calm Calm - N/A   Overcast
6:15 AM 51.8 °F - N/A% 30.14 in 8.0 mi Calm Calm - N/A   Mostly Cloudy
6:35 AM 51.8 °F - N/A% 30.14 in 3.0 mi Calm Calm - N/A   Mostly Cloudy
6:55 AM 51.8 °F - N/A% 30.14 in 9.0 mi Calm Calm - N/A   Scattered Clouds
7:15 AM 51.8 °F - N/A% 30.13 in 8.0 mi Calm Calm - N/A   Clear
7:35 AM 51.8 °F - N/A% 30.12 in 6.0 mi East 6.9 mph - N/A   Clear
7:55 AM 51.8 °F - N/A% 30.13 in 1.8 mi Calm Calm - N/A   Clear
8:15 AM 51.8 °F - N/A% 30.13 in 6.0 mi Calm Calm - N/A   Partly Cloudy
8:35 AM 51.8 °F - N/A% 30.14 in 0.5 mi Calm Calm - N/A   Overcast
9:15 AM 53.6 °F - N/A% 30.11 in 3.0 mi Calm Calm - N/A   Partly Cloudy
9:35 AM 53.6 °F - N/A% 30.10 in 8.0 mi Calm Calm - N/A   Clear
9:55 AM 55.4 °F - N/A% 30.10 in 6.0 mi Calm Calm - N/A   Partly Cloudy
10:15 AM 55.4 °F - N/A% 30.10 in 1.5 mi Calm Calm - N/A   Scattered Clouds
10:35 AM 55.4 °F - N/A% 30.09 in 0.2 mi SE 4.6 mph - N/A   Overcast
10:55 AM 55.4 °F - N/A% 30.09 in 0.8 mi Calm Calm - N/A   Overcast
11:15 AM 55.4 °F - N/A% 30.07 in 2.0 mi Calm Calm - N/A   Overcast
11:35 AM 55.4 °F - N/A% 30.07 in 2.0 mi Calm Calm - N/A   Overcast
11:55 AM 57.2 °F - N/A% 30.06 in 2.0 mi Calm Calm - N/A   Overcast
12:15 PM 57.2 °F - N/A% 30.04 in 1.0 mi SSE 6.9 mph - N/A   Overcast
12:35 PM 57.2 °F - N/A% 30.03 in 2.0 mi South 8.1 mph - N/A   Overcast
12:55 PM 57.2 °F - N/A% 30.02 in 2.0 mi South 5.8 mph - N/A   Overcast
1:15 PM 57.2 °F - N/A% 30.00 in 0.8 mi SSE 6.9 mph - N/A   Overcast
1:35 PM 57.2 °F - N/A% 30.00 in 0.8 mi SSE 5.8 mph - N/A   Overcast
2:35 PM 57.2 °F - N/A% 29.95 in 4.0 mi East 6.9 mph - N/A   Mostly Cloudy
2:55 PM 57.2 °F - N/A% 29.93 in 9.0 mi ESE 6.9 mph - N/A   Partly Cloudy
3:15 PM 57.2 °F - N/A% 29.91 in 10.0 mi Calm Calm - N/A   Clear
3:35 PM 57.2 °F 57.2 °F 100% 29.89 in 10.0 mi Calm Calm - N/A   Clear
3:55 PM 60.8 °F 60.8 °F 100% 29.90 in 10.0 mi South 4.6 mph - N/A   Clear
4:15 PM 59.0 °F 59.0 °F 100% 29.89 in 10.0 mi Calm Calm - N/A   Clear
4:35 PM 60.8 °F 60.8 °F 100% 29.89 in 10.0 mi South 6.9 mph - N/A   Clear
5:15 PM 60.8 °F 57.2 °F 88% 29.87 in 10.0 mi Calm Calm - N/A   Partly Cloudy
5:35 PM 60.8 °F 57.2 °F 88% 29.87 in 10.0 mi Calm Calm - N/A   Scattered Clouds
5:55 PM 60.8 °F 59.0 °F 94% 29.87 in 10.0 mi Calm Calm - N/A   Scattered Clouds
6:15 PM 57.2 °F 57.2 °F 100% 29.86 in 10.0 mi Calm Calm - N/A   Partly Cloudy
6:35 PM 60.8 °F 57.2 °F 88% 29.85 in 8.0 mi Calm Calm - N/A   Partly Cloudy
7:15 PM 57.2 °F 57.2 °F 100% 29.83 in 6.0 mi Calm Calm - N/A   Mostly Cloudy
7:35 PM 59.0 °F 59.0 °F 100% 29.82 in 7.0 mi Calm Calm - N/A   Partly Cloudy
8:15 PM 60.8 °F 60.8 °F 100% 29.80 in 9.0 mi South 5.8 mph - N/A   Partly Cloudy
8:35 PM 60.8 °F 59.0 °F 94% 29.79 in 7.0 mi South 9.2 mph - N/A   Scattered Clouds
8:55 PM 60.8 °F 59.0 °F 94% 29.79 in 9.0 mi South 10.4 mph 16.1 mph N/A   Partly Cloudy
9:15 PM 60.8 °F 59.0 °F 94% 29.81 in 5.0 mi WSW 16.1 mph - N/A   Mostly Cloudy
9:35 PM 57.2 °F 57.2 °F 100% 29.81 in 2.5 mi WNW 9.2 mph - N/A   Overcast
9:55 PM 57.2 °F - N/A% 29.82 in 1.2 mi West 15.0 mph - N/A   Overcast
10:15 PM 57.2 °F 57.2 °F 100% 29.80 in 3.0 mi WSW 9.2 mph - N/A   Overcast
10:35 PM 57.2 °F 57.2 °F 100% 29.80 in 2.5 mi West 16.1 mph 20.7 mph N/A   Overcast
10:55 PM 57.2 °F 57.2 °F 100% 29.81 in 2.5 mi SW 11.5 mph 18.4 mph N/A   Overcast
11:15 PM 57.2 °F - N/A% 29.80 in 4.0 mi SW 15.0 mph - N/A   Overcast
11:35 PM 57.2 °F - N/A% 29.79 in 4.0 mi South 9.2 mph 17.3 mph N/A   Overcast
11:55 PM 57.2 °F 57.2 °F 100% 29.78 in 7.0 mi SSW 10.4 mph - N/A   Mostly Cloudy